EZY58JT EGGP-LMML

Flight info

Callsign EZY58JT
Flight time N/A
Altitude 37000
Route NANTI L8 HON L15 MOTOX DCT RUCAC DCT LESDO DCT BUBLI DCT LUVAL DCT SHARA DCT DEVDI DCT ODINA DCT SRN DCT KALIK DCT VALMA DCT MARON DCT EKOLA L12 GZO
Aircraft A20N/M-SDE2E3FGHIJ1RWXYZ/LB1G1

Departure

Time 2026-05-05 12:12
Airport Liverpool John Lennon Airport (EGGP)

Arrival

Time N/A
Airport Malta International Airport (LMML)
Time Latitude Longitude Altitude Speed Heading
2026-05-05 11:54 53.33632 -2.85195 86 ft 0 kts 265°
2026-05-05 12:02 53.33633 -2.85185 86 ft 0 kts 265°
2026-05-05 12:03 53.33635 -2.85165 86 ft 2 kts 244°
2026-05-05 12:03 53.33643 -2.85144 86 ft 2 kts 221°
2026-05-05 12:03 53.33656 -2.85131 87 ft 2 kts 196°
2026-05-05 12:03 53.33667 -2.85128 87 ft 0 kts 178°
2026-05-05 12:04 53.33674 -2.85129 87 ft 0 kts 175°
2026-05-05 12:06 53.33671 -2.85129 87 ft 1 kts 173°
2026-05-05 12:06 53.33644 -2.85112 87 ft 6 kts 153°
2026-05-05 12:06 53.33594 -2.85071 86 ft 8 kts 163°
2026-05-05 12:07 53.33535 -2.85034 86 ft 9 kts 123°
2026-05-05 12:07 53.33533 -2.84915 87 ft 10 kts 85°
2026-05-05 12:07 53.33537 -2.84786 87 ft 11 kts 86°
2026-05-05 12:07 53.33544 -2.84653 88 ft 11 kts 84°
2026-05-05 12:08 53.33550 -2.84515 88 ft 12 kts 85°
2026-05-05 12:08 53.33556 -2.84369 89 ft 12 kts 85°
2026-05-05 12:08 53.33565 -2.84218 89 ft 13 kts 84°
2026-05-05 12:08 53.33571 -2.84061 89 ft 13 kts 86°
2026-05-05 12:09 53.33579 -2.83898 89 ft 14 kts 86°
2026-05-05 12:09 53.33588 -2.83745 89 ft 12 kts 83°
2026-05-05 12:09 53.33595 -2.83608 89 ft 11 kts 86°
2026-05-05 12:09 53.33599 -2.83484 89 ft 9 kts 87°
2026-05-05 12:10 53.33591 -2.83380 88 ft 8 kts 112°
2026-05-05 12:10 53.33548 -2.83311 88 ft 8 kts 159°
2026-05-05 12:10 53.33485 -2.83294 88 ft 9 kts 175°
2026-05-05 12:10 53.33436 -2.83343 88 ft 7 kts 259°
2026-05-05 12:11 53.33435 -2.83387 88 ft 0 kts 265°
2026-05-05 12:11 53.33434 -2.83397 88 ft 8 kts 266°
2026-05-05 12:11 53.33408 -2.83955 89 ft 84 kts 266°
2026-05-05 12:11 53.33351 -2.85262 85 ft 138 kts 265°
2026-05-05 12:12 53.33255 -2.87033 362 ft 160 kts 266°
2026-05-05 12:12 53.33148 -2.88900 996 ft 165 kts 267°
2026-05-05 12:12 53.33035 -2.90793 1683 ft 168 kts 264°
2026-05-05 12:12 53.32575 -2.92555 2271 ft 179 kts 225°
2026-05-05 12:13 53.31388 -2.93358 2671 ft 198 kts 177°
2026-05-05 12:13 53.30077 -2.92515 3099 ft 212 kts 139°
2026-05-05 12:13 53.29008 -2.90705 3550 ft 227 kts 127°
2026-05-05 12:13 53.27997 -2.88503 3849 ft 254 kts 123°
2026-05-05 12:14 53.26917 -2.86015 4310 ft 274 kts 123°
2026-05-05 12:14 53.25790 -2.83441 5227 ft 276 kts 124°
2026-05-05 12:14 53.24661 -2.80895 6135 ft 278 kts 124°
2026-05-05 12:14 53.23505 -2.78305 7013 ft 280 kts 124°
2026-05-05 12:15 53.22337 -2.75696 7857 ft 284 kts 125°
2026-05-05 12:15 53.21162 -2.73081 8664 ft 287 kts 125°
2026-05-05 12:15 53.19956 -2.70405 9455 ft 291 kts 126°
2026-05-05 12:15 53.18734 -2.67701 10228 ft 295 kts 126°
2026-05-05 12:16 53.17484 -2.64936 10765 ft 307 kts 126°
2026-05-05 12:16 53.16167 -2.62026 11304 ft 318 kts 126°
2026-05-05 12:16 53.14820 -2.59078 12036 ft 322 kts 128°
2026-05-05 12:16 53.13291 -2.56345 12754 ft 326 kts 137°
2026-05-05 12:17 53.11520 -2.53967 13453 ft 329 kts 144°
2026-05-05 12:17 53.09668 -2.51767 14141 ft 333 kts 145°
2026-05-05 12:17 53.07776 -2.49565 14843 ft 336 kts 146°
2026-05-05 12:17 53.05850 -2.47322 15532 ft 339 kts 146°
2026-05-05 12:18 53.03934 -2.45086 16180 ft 342 kts 146°
2026-05-05 12:18 53.01967 -2.42784 16830 ft 345 kts 146°
2026-05-05 12:18 53.00001 -2.40480 17478 ft 348 kts 146°
2026-05-05 12:18 52.98028 -2.38168 18108 ft 351 kts 146°
2026-05-05 12:19 52.96039 -2.35840 18740 ft 354 kts 147°
2026-05-05 12:19 52.94020 -2.33479 19369 ft 355 kts 147°
2026-05-05 12:19 52.91988 -2.31105 19996 ft 357 kts 147°
2026-05-05 12:19 52.89951 -2.28730 20609 ft 359 kts 147°
2026-05-05 12:20 52.87892 -2.26333 21010 ft 368 kts 147°
2026-05-05 12:20 52.85757 -2.23849 21243 ft 381 kts 147°
2026-05-05 12:20 52.83590 -2.21331 21474 ft 393 kts 147°
2026-05-05 12:20 52.81295 -2.18666 21755 ft 403 kts 147°
2026-05-05 12:21 52.79013 -2.16017 22229 ft 407 kts 147°
2026-05-05 12:21 52.76674 -2.13304 22785 ft 409 kts 147°
2026-05-05 12:21 52.74347 -2.10609 23320 ft 411 kts 147°
2026-05-05 12:21 52.71973 -2.07865 23842 ft 414 kts 147°
2026-05-05 12:22 52.69610 -2.05141 24353 ft 416 kts 147°
2026-05-05 12:22 52.67216 -2.02387 24855 ft 418 kts 147°
2026-05-05 12:22 52.64852 -1.99669 25330 ft 421 kts 146°
2026-05-05 12:22 52.62448 -1.96906 25801 ft 423 kts 146°
2026-05-05 12:23 52.60023 -1.94122 26257 ft 425 kts 146°
2026-05-05 12:23 52.57605 -1.91348 26762 ft 425 kts 146°
2026-05-05 12:23 52.55187 -1.88579 27250 ft 426 kts 146°
2026-05-05 12:23 52.52718 -1.85755 27662 ft 428 kts 146°
2026-05-05 12:24 52.50275 -1.82965 28043 ft 430 kts 146°
2026-05-05 12:24 52.47845 -1.80192 28419 ft 432 kts 146°
2026-05-05 12:24 52.45361 -1.77362 28820 ft 432 kts 146°
2026-05-05 12:24 52.42884 -1.74544 29321 ft 431 kts 146°
2026-05-05 12:25 52.40449 -1.71779 29802 ft 428 kts 146°
2026-05-05 12:25 52.38045 -1.68931 30240 ft 428 kts 144°
2026-05-05 12:25 52.35715 -1.65846 30652 ft 427 kts 140°
2026-05-05 12:25 52.33538 -1.62622 30964 ft 427 kts 137°
2026-05-05 12:26 52.29399 -1.55647 30994 ft 426 kts 135°
2026-05-05 12:26 52.25302 -1.48660 30995 ft 426 kts 136°
2026-05-05 12:27 52.21185 -1.41665 31286 ft 428 kts 135°
2026-05-05 12:27 52.19130 -1.38179 31684 ft 425 kts 135°
2026-05-05 12:27 52.17103 -1.34744 32076 ft 424 kts 136°
2026-05-05 12:28 52.15048 -1.31265 32391 ft 423 kts 136°
2026-05-05 12:28 52.13027 -1.27854 32675 ft 423 kts 136°
2026-05-05 12:28 52.10997 -1.24432 32970 ft 422 kts 136°
2026-05-05 12:28 52.08939 -1.20965 33265 ft 422 kts 136°
2026-05-05 12:29 52.06917 -1.17564 33538 ft 421 kts 136°
2026-05-05 12:29 52.04881 -1.14144 33826 ft 421 kts 136°
2026-05-05 12:29 52.02833 -1.10705 34114 ft 420 kts 136°
2026-05-05 12:29 52.00802 -1.07303 34379 ft 420 kts 136°
2026-05-05 12:30 51.98779 -1.03920 34607 ft 419 kts 136°
2026-05-05 12:30 51.96729 -1.00499 34836 ft 419 kts 136°
2026-05-05 12:30 51.94700 -0.97115 35045 ft 418 kts 136°
2026-05-05 12:30 51.92684 -0.93757 35208 ft 418 kts 136°
2026-05-05 12:31 51.90730 -0.90323 35342 ft 420 kts 129°
2026-05-05 12:31 51.89074 -0.86425 35490 ft 422 kts 123°
2026-05-05 12:31 51.87526 -0.82365 35679 ft 422 kts 123°
2026-05-05 12:31 51.86013 -0.78362 35827 ft 422 kts 123°
2026-05-05 12:32 51.84473 -0.74301 35961 ft 423 kts 123°
2026-05-05 12:32 51.82924 -0.70244 36090 ft 424 kts 123°
2026-05-05 12:32 51.81359 -0.66163 36218 ft 425 kts 123°
2026-05-05 12:32 51.79818 -0.62161 36338 ft 426 kts 123°
2026-05-05 12:33 51.78235 -0.58059 36466 ft 426 kts 123°
2026-05-05 12:33 51.76682 -0.54048 36590 ft 427 kts 123°
2026-05-05 12:33 51.75090 -0.49944 36702 ft 427 kts 123°
2026-05-05 12:33 51.73524 -0.45916 36816 ft 428 kts 123°
2026-05-05 12:34 51.71935 -0.41834 36924 ft 429 kts 123°
2026-05-05 12:34 51.70347 -0.37760 36939 ft 430 kts 123°
2026-05-05 12:34 51.67168 -0.29621 36949 ft 430 kts 124°
2026-05-05 12:35 51.63970 -0.21461 36948 ft 430 kts 124°
2026-05-05 12:35 51.60757 -0.13292 36950 ft 430 kts 124°
2026-05-05 12:36 51.57577 -0.05233 36950 ft 430 kts 124°
2026-05-05 12:36 51.54350 0.02914 36947 ft 434 kts 124°
2026-05-05 12:37 51.51093 0.11115 36947 ft 441 kts 124°
2026-05-05 12:37 51.47775 0.19443 36943 ft 447 kts 123°
2026-05-05 12:38 51.46091 0.23660 36714 ft 445 kts 124°
2026-05-05 12:38 51.44422 0.27834 36835 ft 445 kts 123°
2026-05-05 12:38 51.41072 0.36188 36917 ft 449 kts 123°
2026-05-05 12:39 51.37677 0.44630 36936 ft 452 kts 123°
2026-05-05 12:39 51.34275 0.53060 36939 ft 453 kts 124°
2026-05-05 12:40 51.30861 0.61491 36938 ft 453 kts 124°
2026-05-05 12:40 51.27438 0.69918 36940 ft 453 kts 124°
2026-05-05 12:41 51.24016 0.78314 36940 ft 453 kts 124°
2026-05-05 12:41 51.20581 0.86716 36944 ft 453 kts 124°
2026-05-05 12:42 51.17152 0.95076 36937 ft 453 kts 124°
2026-05-05 12:42 51.13690 1.03488 36937 ft 453 kts 124°
2026-05-05 12:43 51.10230 1.11868 36940 ft 453 kts 124°
2026-05-05 12:43 51.06793 1.20166 36948 ft 453 kts 125°
2026-05-05 12:44 51.03316 1.28536 36951 ft 453 kts 125°
2026-05-05 12:44 50.99862 1.36817 36951 ft 453 kts 125°
2026-05-05 12:45 50.96523 1.45205 36942 ft 453 kts 121°
2026-05-05 12:45 50.93719 1.54197 36944 ft 454 kts 115°
2026-05-05 12:46 50.91190 1.63327 36932 ft 453 kts 118°
2026-05-05 12:46 50.88158 1.71721 36939 ft 450 kts 126°
2026-05-05 12:47 50.84377 1.79616 36917 ft 447 kts 133°
2026-05-05 12:47 50.80040 1.86641 36920 ft 446 kts 138°
2026-05-05 12:48 50.75546 1.93396 36914 ft 446 kts 138°
2026-05-05 12:48 50.71064 2.00123 36906 ft 446 kts 138°
2026-05-05 12:49 50.66550 2.06882 36900 ft 446 kts 138°